• In Deutschland
  • Länderverzeichnis
  • Für 7 Tage
  • Wassertemperatur
  • Satellitenkarten
  • Wetterkarte
  • Widgets
  • user-avatar
    Anmelden

    Stündliche Wetter Stepanakert

    Heute, 26 Mai, Samstag

    Zeit Temperatur Niederschläge Wind Luftdruck Luftfeuchtigkeit
    00:00 +18°C° 0 mm 2 m/S 690 mmHg 59%
    01:00 +18°C° 0 mm 2 m/S 690 mmHg 58%
    02:00 +18°C° 0 mm 2 m/S 689 mmHg 57%
    03:00 +19°C° 0 mm 3 m/S 689 mmHg 53%
    04:00 +19°C° 0 mm 3 m/S 689 mmHg 53%
    05:00 +19°C° 0 mm 2 m/S 689 mmHg 54%
    06:00 +20°C° 0 mm 2 m/S 690 mmHg 55%
    07:00 +23°C° 0 mm 2 m/S 690 mmHg 49%
    08:00 +25°C° 0 mm 2 m/S 691 mmHg 43%
    09:00 +27°C° 0 mm 2 m/S 691 mmHg 36%
    10:00 +28°C° 0,1 mm 2 m/S 691 mmHg 35%
    11:00 +28°C° 0,1 mm 3 m/S 691 mmHg 35%
    12:00 +29°C° 0,1 mm 3 m/S 691 mmHg 34%
    13:00 +29°C° 0,3 mm 3 m/S 691 mmHg 34%
    14:00 +29°C° 0,3 mm 2 m/S 691 mmHg 34%
    15:00 +29°C° 0,3 mm 2 m/S 691 mmHg 34%
    16:00 +29°C° 0 mm 2 m/S 691 mmHg 38%
    17:00 +28°C° 0 mm 2 m/S 691 mmHg 42%
    18:00 +27°C° 0 mm 2 m/S 691 mmHg 46%
    19:00 +25°C° 0,2 mm 2 m/S 691 mmHg 51%
    20:00 +23°C° 0,2 mm 2 m/S 692 mmHg 55%
    21:00 +20°C° 0,2 mm 2 m/S 692 mmHg 60%
    22:00 +20°C° 0,2 mm 2 m/S 692 mmHg 62%
    23:00 +19°C° 0,2 mm 2 m/S 693 mmHg 63%

    Morgen, 27 Mai, Sonntag

    Zeit Temperatur Niederschläge Wind Luftdruck Luftfeuchtigkeit
    00:00 +19°C° 0,2 mm 2 m/S 693 mmHg 65%
    01:00 +18°C° 0,1 mm 2 m/S 693 mmHg 66%
    02:00 +18°C° 0,1 mm 2 m/S 693 mmHg 68%
    03:00 +17°C° 0,1 mm 2 m/S 693 mmHg 69%
    04:00 +18°C° 0 mm 2 m/S 694 mmHg 69%
    05:00 +18°C° 0 mm 2 m/S 694 mmHg 69%
    06:00 +18°C° 0 mm 2 m/S 695 mmHg 69%
    07:00 +20°C° 0 mm 3 m/S 696 mmHg 65%
    08:00 +21°C° 0 mm 4 m/S 696 mmHg 61%
    09:00 +22°C° 0 mm 5 m/S 697 mmHg 57%
    10:00 +22°C° 0 mm 5 m/S 697 mmHg 57%
    11:00 +22°C° 0 mm 6 m/S 697 mmHg 57%
    12:00 +22°C° 0 mm 6 m/S 697 mmHg 57%
    13:00 +21°C° 0,1 mm 6 m/S 697 mmHg 58%
    14:00 +21°C° 0,1 mm 6 m/S 697 mmHg 60%
    15:00 +20°C° 0,1 mm 5 m/S 697 mmHg 61%
    16:00 +19°C° 0,1 mm 5 m/S 697 mmHg 63%
    17:00 +19°C° 0,1 mm 5 m/S 697 mmHg 65%
    18:00 +18°C° 0,1 mm 4 m/S 697 mmHg 68%
    19:00 +17°C° 0 mm 3 m/S 697 mmHg 70%
    20:00 +16°C° 0 mm 3 m/S 698 mmHg 73%
    21:00 +15°C° 0 mm 2 m/S 698 mmHg 76%
    22:00 +14°C° 0 mm 2 m/S 698 mmHg 77%
    23:00 +14°C° 0 mm 1 m/S 698 mmHg 78%

    übermorgen, 28 Mai, Montag

    Zeit Temperatur Niederschläge Wind Luftdruck Luftfeuchtigkeit
    00:00 +13°C° 0 mm 1 m/S 697 mmHg 78%
    01:00 +13°C° 0 mm 1 m/S 697 mmHg 79%
    02:00 +13°C° 0 mm 1 m/S 697 mmHg 79%
    03:00 +13°C° 0 mm 1 m/S 696 mmHg 79%
    04:00 +14°C° 0 mm 1 m/S 696 mmHg 76%
    05:00 +14°C° 0 mm 1 m/S 696 mmHg 73%
    06:00 +15°C° 0 mm 1 m/S 696 mmHg 70%
    07:00 +18°C° 0 mm 1 m/S 696 mmHg 64%
    08:00 +20°C° 0 mm 1 m/S 696 mmHg 58%
    09:00 +21°C° 0 mm 2 m/S 696 mmHg 52%
    10:00 +23°C° 0 mm 2 m/S 696 mmHg 49%
    11:00 +25°C° 0 mm 2 m/S 695 mmHg 46%
    12:00 +26°C° 0 mm 2 m/S 695 mmHg 43%
    13:00 +26°C° 0,2 mm 2 m/S 694 mmHg 43%
    14:00 +27°C° 0,2 mm 2 m/S 694 mmHg 43%
    15:00 +27°C° 0,2 mm 2 m/S 694 mmHg 42%
    16:00 +27°C° 0,2 mm 2 m/S 693 mmHg 46%
    17:00 +26°C° 0,2 mm 2 m/S 693 mmHg 49%
    18:00 +25°C° 0,2 mm 2 m/S 693 mmHg 53%
    19:00 +23°C° 0,1 mm 1 m/S 693 mmHg 57%
    20:00 +22°C° 0,1 mm 1 m/S 693 mmHg 61%
    21:00 +20°C° 0,1 mm 1 m/S 693 mmHg 66%
    22:00 +20°C° 0 mm 1 m/S 693 mmHg 67%
    23:00 +19°C° 0 mm 1 m/S 693 mmHg 68%

    29 Mai, Dienstag

    Zeit Temperatur Niederschläge Wind Luftdruck Luftfeuchtigkeit
    00:00 +19°C° 0 mm 1 m/S 693 mmHg 69%
    01:00 +18°C° 0 mm 1 m/S 693 mmHg 71%
    02:00 +18°C° 0 mm 1 m/S 693 mmHg 72%
    03:00 +18°C° 0 mm 1 m/S 693 mmHg 74%
    04:00 +18°C° 0 mm 1 m/S 693 mmHg 72%
    05:00 +19°C° 0 mm 1 m/S 694 mmHg 70%
    06:00 +20°C° 0 mm 1 m/S 694 mmHg 68%
    07:00 +20°C° 0 mm 2 m/S 694 mmHg 62%
    08:00 +22°C° 0 mm 3 m/S 694 mmHg 56%
    09:00 +23°C° 0 mm 5 m/S 695 mmHg 50%
    10:00 +23°C° 0 mm 5 m/S 695 mmHg 49%
    11:00 +24°C° 0 mm 6 m/S 694 mmHg 49%
    12:00 +24°C° 0 mm 6 m/S 694 mmHg 49%
    13:00 +24°C° 0,1 mm 6 m/S 694 mmHg 51%
    14:00 +23°C° 0,1 mm 6 m/S 694 mmHg 54%
    15:00 +22°C° 0,1 mm 6 m/S 694 mmHg 57%
    16:00 +21°C° 0,1 mm 6 m/S 694 mmHg 59%
    17:00 +20°C° 0,1 mm 5 m/S 694 mmHg 61%
    18:00 +19°C° 0,1 mm 5 m/S 694 mmHg 64%
    19:00 +18°C° 0,3 mm 4 m/S 694 mmHg 66%
    20:00 +17°C° 0,3 mm 3 m/S 694 mmHg 69%
    21:00 +16°C° 0,3 mm 3 m/S 695 mmHg 72%
    22:00 +16°C° 0,1 mm 2 m/S 695 mmHg 74%
    23:00 +15°C° 0,1 mm 2 m/S 695 mmHg 77%

    30 Mai, Mittwoch

    Zeit Temperatur Niederschläge Wind Luftdruck Luftfeuchtigkeit
    00:00 +14°C° 0,1 mm 2 m/S 694 mmHg 79%
    01:00 +14°C° 0 mm 2 m/S 694 mmHg 80%
    02:00 +14°C° 0 mm 2 m/S 694 mmHg 81%
    03:00 +13°C° 0 mm 2 m/S 694 mmHg 81%
    04:00 +14°C° 0 mm 2 m/S 694 mmHg 80%
    05:00 +14°C° 0 mm 2 m/S 695 mmHg 79%
    06:00 +14°C° 0 mm 2 m/S 695 mmHg 78%
    07:00 +16°C° 0 mm 3 m/S 695 mmHg 73%
    08:00 +17°C° 0 mm 3 m/S 695 mmHg 68%
    09:00 +18°C° 0 mm 3 m/S 695 mmHg 63%
    10:00 +19°C° 0 mm 3 m/S 695 mmHg 60%
    11:00 +20°C° 0 mm 3 m/S 695 mmHg 57%
    12:00 +21°C° 0 mm 3 m/S 695 mmHg 54%
    13:00 +21°C° 0,1 mm 3 m/S 694 mmHg 52%
    14:00 +22°C° 0,1 mm 3 m/S 694 mmHg 51%
    15:00 +24°C° 0,1 mm 3 m/S 694 mmHg 49%
    16:00 +22°C° 0 mm 3 m/S 694 mmHg 52%
    17:00 +21°C° 0 mm 3 m/S 693 mmHg 54%
    18:00 +21°C° 0 mm 2 m/S 693 mmHg 57%
    19:00 +20°C° 0 mm 2 m/S 693 mmHg 60%
    20:00 +18°C° 0 mm 2 m/S 693 mmHg 63%
    21:00 +17°C° 0 mm 2 m/S 693 mmHg 66%
    22:00 +18°C° 0 mm 1 m/S 692 mmHg 67%
    23:00 +16°C° 0 mm 1 m/S 692 mmHg 67%

    31 Mai, Donnerstag

    Zeit Temperatur Niederschläge Wind Luftdruck Luftfeuchtigkeit
    00:00 +16°C° 0 mm 1 m/S 691 mmHg 68%
    01:00 +16°C° 0 mm 1 m/S 691 mmHg 68%
    02:00 +15°C° 0 mm 1 m/S 690 mmHg 68%
    03:00 +15°C° 0 mm 1 m/S 690 mmHg 69%
    04:00 +16°C° 0 mm 1 m/S 690 mmHg 66%
    05:00 +18°C° 0 mm 1 m/S 690 mmHg 64%
    06:00 +19°C° 0 mm 1 m/S 690 mmHg 62%
    07:00 +20°C° 0 mm 2 m/S 690 mmHg 56%
    08:00 +21°C° 0 mm 2 m/S 690 mmHg 51%
    09:00 +24°C° 0 mm 3 m/S 690 mmHg 46%
    10:00 +26°C° 0 mm 3 m/S 689 mmHg 43%
    11:00 +27°C° 0 mm 3 m/S 689 mmHg 41%
    12:00 +28°C° 0 mm 3 m/S 688 mmHg 39%
    13:00 +29°C° 0 mm 3 m/S 688 mmHg 38%
    14:00 +29°C° 0 mm 3 m/S 688 mmHg 37%
    15:00 +30°C° 0 mm 3 m/S 687 mmHg 37%
    16:00 +28°C° 0,3 mm 3 m/S 687 mmHg 43%
    17:00 +27°C° 0,3 mm 2 m/S 687 mmHg 49%
    18:00 +26°C° 0,3 mm 2 m/S 687 mmHg 54%
    19:00 +24°C° 0,4 mm 2 m/S 687 mmHg 59%
    20:00 +23°C° 0,4 mm 2 m/S 687 mmHg 64%
    21:00 +20°C° 0,4 mm 2 m/S 688 mmHg 69%
    22:00 +20°C° 0 mm 2 m/S 688 mmHg 69%
    23:00 +19°C° 0 mm 2 m/S 688 mmHg 68%
    Mehr zeigen